Change the Weather History Date:

Thursday, July 11, 2013

  Actual Average Record
Temperature  
Mean Temperature 65 °F -  
Max Temperature 75 °F 81 °F 89 °F (1972)
Min Temperature 55 °F 57 °F 41 °F (1978)
Growing Degree Days 15 (Base 50)    
Moisture  
Dew Point 54 °F    
Average Humidity 69    
Maximum Humidity 93    
Minimum Humidity 41    
Precipitation  
Precipitation 0.00 in - - ()
Sea Level Pressure  
Sea Level Pressure 30.07 in    
Wind  
Wind Speed 3 mph (North)    
Max Wind Speed 14 mph    
Max Gust Speed 20 mph    
Visibility 8 miles    
Events Fog    
Averages and records for this station are not official NWS values.
T = Trace of Precipitation, MM = Missing Value Source: NWS Daily Summary

Daily Weather History Graph

Daily Weather History Graph

Search for Another Location

Airport or City:

Trip Planner

Search our weather history database for the weather conditions in past years. The results will help you decide how hot, cold, wet, or windy it might be!

Date:

Astronomy

Jul. 11, 2013 Rise Set
Actual Time 6:13 AM EDT 9:28 PM EDT
Civil Twilight 5:38 AM EDT 10:03 PM EDT
Nautical Twilight 4:52 AM EDT 10:49 PM EDT
Astronomical Twilight 3:56 AM EDT 11:44 PM EDT
Moon 9:40 AM EDT (7/11) 10:58 PM EDT (7/11)
Length of Visible Light 16h 25m
Length of Day
15h 14m
Waxing Crescent, 10% of the Moon is Illuminated
Jul 11
Waxing Crescent
Jul 15
First Quarter
Jul 22
Full
Jul 29
Last Quarter
Aug 6
New

Hourly Weather History & Observations

Time (EDT) Temp. Dew Point Humidity Pressure Visibility Wind Dir Wind Speed Gust Speed Precip Events Conditions
12:15 AM 60.3 °F 57.6 °F 91% 30.00 in 1.8 mi Calm Calm - N/A   Mist
12:35 AM 57.7 °F 55.0 °F 91% 30.01 in 1.0 mi Calm Calm - N/A   Mist
12:55 AM 57.7 °F 55.0 °F 91% 30.01 in 2.0 mi Calm Calm - N/A   Clear
1:15 AM 57.6 °F 54.9 °F 91% 30.01 in 0.5 mi Calm Calm - N/A Fog Fog
1:35 AM 56.3 °F 53.6 °F 91% 30.01 in 0.2 mi Calm Calm - N/A Fog Fog
1:55 AM 57.2 °F 54.7 °F 91% 30.02 in 0.2 mi Calm Calm - N/A Fog Fog
2:15 AM 55.4 °F 52.7 °F 91% 30.02 in 0.2 mi Calm Calm - N/A Fog Fog
2:35 AM 57.7 °F 55.4 °F 92% 30.02 in 7.0 mi Calm Calm - N/A   Clear
2:55 AM 55.4 °F 52.7 °F 91% 30.02 in 0.5 mi Calm Calm - N/A Fog Fog
3:15 AM 55.4 °F 52.7 °F 91% 30.02 in 0.2 mi Calm Calm - N/A Fog Fog
3:35 AM 55.4 °F 52.7 °F 91% 30.03 in 1.0 mi Calm Calm - N/A   Mist
3:55 AM 55.4 °F 52.7 °F 91% 30.03 in 1.0 mi Calm Calm - N/A   Mist
4:15 AM 55.4 °F 52.7 °F 91% 30.04 in 0.2 mi Calm Calm - N/A Fog Fog
4:35 AM 55.4 °F 52.7 °F 91% 30.04 in 1.0 mi Calm Calm - N/A   Mist
4:55 AM 55.4 °F 52.7 °F 91% 30.04 in 5.0 mi Calm Calm - N/A   Clear
5:15 AM 55.4 °F 52.7 °F 91% 30.04 in 0.2 mi Calm Calm - N/A Fog Fog
5:35 AM 55.4 °F 52.7 °F 91% 30.04 in 0.2 mi Calm Calm - N/A Fog Fog
5:55 AM 55.4 °F 52.9 °F 91% 30.04 in 10.0 mi Calm Calm - N/A   Clear
6:15 AM 55.4 °F 52.9 °F 91% 30.05 in 2.5 mi Calm Calm - N/A   Scattered Clouds
6:35 AM 55.4 °F 52.7 °F 91% 30.05 in 10.0 mi Calm Calm - N/A   Scattered Clouds
6:55 AM 55.4 °F 52.9 °F 91% 30.06 in 7.0 mi Calm Calm - N/A   Scattered Clouds
7:15 AM 55.4 °F 52.9 °F 91% 30.07 in 7.0 mi Calm Calm - N/A   Clear
7:35 AM 60.3 °F 58.1 °F 93% 30.07 in 10.0 mi Calm Calm - N/A   Clear
7:55 AM 62.8 °F 60.4 °F 92% 30.07 in 10.0 mi WNW 4.6 mph - N/A   Clear
8:15 AM 62.8 °F 59.4 °F 89% 30.08 in 10.0 mi NW 6.9 mph - N/A   Clear
8:35 AM 65.7 °F 60.6 °F 84% 30.08 in 10.0 mi NNW 6.9 mph - N/A   Clear
8:55 AM 68.9 °F 60.6 °F 75% 30.08 in 10.0 mi North 9.2 mph - N/A   Clear
9:15 AM 68.0 °F 58.5 °F 71% 30.09 in 10.0 mi NNW 6.9 mph - N/A   Clear
9:35 AM 65.8 °F 57.6 °F 75% 30.09 in 10.0 mi North 6.9 mph - N/A   Clear
9:55 AM 68.5 °F 59.4 °F 72% 30.10 in 10.0 mi North 9.2 mph - N/A   Clear
10:15 AM 70.3 °F 61.0 °F 72% 30.10 in 10.0 mi NNW 6.9 mph - N/A   Clear
10:35 AM 70.3 °F 58.3 °F 66% 30.10 in 10.0 mi NNW 6.9 mph - N/A   Clear
10:55 AM 70.9 °F 56.3 °F 60% 30.10 in 10.0 mi North 8.1 mph - N/A   Clear
11:15 AM 71.2 °F 55.9 °F 58% 30.10 in 10.0 mi North 10.4 mph - N/A   Clear
11:35 AM 72.9 °F 56.1 °F 56% 30.10 in 10.0 mi NNW 10.4 mph - N/A   Clear
11:55 AM 74.7 °F 57.6 °F 55% 30.10 in 10.0 mi North 9.2 mph - N/A   Clear
12:15 PM 75.4 °F 55.9 °F 51% 30.11 in 10.0 mi North 12.7 mph 18.4 mph N/A   Clear
12:35 PM 75.4 °F 55.0 °F 49% 30.11 in 10.0 mi NNW 11.5 mph 18.4 mph N/A   Clear
12:55 PM 75.4 °F 55.8 °F 50% 30.11 in 10.0 mi North 12.7 mph - N/A   Clear
1:15 PM 75.4 °F 55.9 °F 51% 30.11 in 10.0 mi NNW 12.7 mph 18.4 mph N/A   Clear
1:35 PM 75.4 °F 56.1 °F 51% 30.10 in 10.0 mi North 11.5 mph 19.6 mph N/A   Clear
1:55 PM 75.4 °F 56.1 °F 51% 30.10 in 10.0 mi North 13.8 mph 18.4 mph N/A   Clear
2:15 PM 75.4 °F 54.3 °F 48% 30.10 in 10.0 mi North 11.5 mph - N/A   Clear
2:35 PM 75.4 °F 55.2 °F 49% 30.10 in 10.0 mi North 10.4 mph 16.1 mph N/A   Clear
2:55 PM 75.4 °F 55.0 °F 49% 30.10 in 10.0 mi North 11.5 mph - N/A   Clear
3:15 PM 75.4 °F 55.9 °F 51% 30.10 in 10.0 mi North 11.5 mph - N/A   Clear
3:35 PM 75.4 °F 55.8 °F 50% 30.10 in 10.0 mi North 9.2 mph - N/A   Clear
3:55 PM 75.4 °F 54.9 °F 49% 30.10 in 10.0 mi North 12.7 mph - N/A   Clear
4:15 PM 75.4 °F 53.4 °F 46% 30.10 in 10.0 mi North 12.7 mph - N/A   Clear
4:35 PM 74.1 °F 52.9 °F 47% 30.10 in 10.0 mi NNW 12.7 mph 17.3 mph N/A   Clear
4:55 PM 75.4 °F 55.0 °F 49% 30.10 in 10.0 mi NNW 9.2 mph - N/A   Clear
5:15 PM 75.4 °F 54.3 °F 48% 30.09 in 10.0 mi North 8.1 mph - N/A   Clear
5:35 PM 75.4 °F 54.5 °F 48% 30.09 in 10.0 mi North 8.1 mph - N/A   Clear
5:55 PM 75.4 °F 53.1 °F 46% 30.09 in 10.0 mi NNW 9.2 mph - N/A   Clear
6:15 PM 72.9 °F 49.1 °F 43% 30.10 in 10.0 mi NNW 10.4 mph - N/A   Clear
6:35 PM 72.9 °F 52.0 °F 48% 30.09 in 10.0 mi NNW 11.5 mph - N/A   Clear
6:55 PM 72.5 °F 53.1 °F 50% 30.09 in 10.0 mi North 8.1 mph - N/A   Clear
7:15 PM 71.6 °F 51.4 °F 49% 30.09 in 10.0 mi North 5.8 mph - N/A   Clear
7:35 PM 71.6 °F 46.9 °F 41% 30.09 in 10.0 mi North 8.1 mph - N/A   Clear
7:55 PM 70.3 °F 45.5 °F 41% 30.09 in 10.0 mi North 6.9 mph - N/A   Clear
8:15 PM 70.3 °F 45.3 °F 41% 30.09 in 10.0 mi North 8.1 mph - N/A   Clear
8:35 PM 70.3 °F 49.6 °F 48% 30.08 in 10.0 mi North 4.6 mph - N/A   Clear
8:55 PM 70.3 °F 52.5 °F 53% 30.08 in 10.0 mi North 3.5 mph - N/A   Clear
9:15 PM 68.0 °F 50.9 °F 54% 30.08 in 10.0 mi North 3.5 mph - N/A   Clear
9:35 PM 63.7 °F 50.4 °F 62% 30.08 in 10.0 mi Calm Calm - N/A   Clear
9:55 PM 62.1 °F 51.3 °F 68% 30.08 in 10.0 mi Calm Calm - N/A   Clear
10:15 PM 61.5 °F 50.7 °F 68% 30.09 in 10.0 mi Calm Calm - N/A   Clear
10:35 PM 57.7 °F 51.6 °F 80% 30.09 in 10.0 mi Calm Calm - N/A   Clear
10:55 PM 56.5 °F 51.1 °F 82% 30.10 in 10.0 mi North 3.5 mph - N/A   Clear
11:15 PM 56.7 °F 51.6 °F 83% 30.10 in 10.0 mi Calm Calm - N/A   Clear
11:35 PM 56.7 °F 51.4 °F 83% 30.09 in 10.0 mi Calm Calm - N/A   Clear
11:55 PM 55.4 °F 50.9 °F 85% 30.09 in 10.0 mi Calm Calm - N/A   Clear